Showing default

APRIZESAT 8, 39425

Orbit data source: Space-Track

APRIZESAT 8, 39425 is a payload satellite owned by SpaceQuest (US) in SSO that was launched on Thu, 21 Nov 2013 UTC via a DNEPR launch vehicle from the Orenburg, Russia (OREN). Payload-class satellites include a variety of spacecraft equipped with specific instruments for various scientific and technological missions. These include communications satellites like Starlink; space stations such as the ISS; scientific satellites like the Hubble; Earth observation satellites from companies like Planet Labs, Umbra, and HawkEye 360; GPS; miniature CubeSats for education and research; and military/defense satellites.

Loading next visibility...
Identifier
39425, 2013-066K
Orbit
SSO
Country
Flag of USUS
Related business
Manufacturer
SpaceQuest
Mission
Operational Commercial Communications
Bus & Motor
APRIZE, Unknown motor
Mass
14 kg wet, 14 kg dry
Launch date (UTC)
2013-11-21 (12 years ago)
Launch vehicle
DNEPR
Launch site
Orenburg, Russia (OREN)
Object type
Payload
Rocket body
Debris
Shape & HBR
Box + 1 Ant, 0.1 m
Radar Cross Section
0.060 m², Medium (>0.1 m² and < 1m²)

Expand to show TLE details & history
Last TLE update: 4 hours ago

TLE from 4 hours ago
0 APRIZESAT 8
1 39425U 13066K   26037.84314057  .00002152  00000-0  24006-3 0  9994
2 39425  97.8075 347.2774 0046170 356.8696   3.2224 14.87317678660294
Epoch: 2026-02-06T20:14Z
TLE epoch observation values (Epoch: 2026-02-06T20:14:07.345Z)
Latitude
-0.00004°
Longitude
-93.2284°
Altitude
577.152 km
Speed
7.589 km/s
True Right ascension
23h 09m 06s
True Declination
0° 00' 00"
Sunlit
Object was in daylight at epoch
Visualization orbit readout
Latitude
Unknown
Longitude
Unknown
Altitude
Unknown
Speed
Unknown
Apparent Right ascension
Unknown
Apparent Declination
Unknown
Sunlit
N/A
Visualization observer readout
Local Sidereal Time
02:40:23
Azimuth
Unknown
Elevation
Unknown
Doppler factor
Unknown
Orbital elements
Apogee altitude
635.581 km
Perigee altitude
571.114 km
Semi-major axis
6,981.484 km
Eccentricity
0.00462
Inclination
97.8075°
RAAN
347.2774°
Arg. of periapsis
356.8696°
True anomaly
3.25231°
Mean anomaly
3.2224°
Eccentric anomaly
3.23734°
Mean motion
3.72067 °/min
Orbital period
96.76 mins
BSTAR
0.00024006
Loading maneuver chart data...
Computing Atmospheric mass density...
Loading historical data...
Loading historical data...
Loading historical data...
Loading historical data...
Loading historical data...
Loading historical data...
Loading historical data...

Documentation

Showing up to 5 results
|